Main page
METAR-TAF:

METAR-TAF

Airports :

Sabzevar Airport

Sabzevar, Iran

latitude: 36-13N, longitude: 057-40E, elevation: 941 m

Current weather observation

The report was made 8 hours and 7 minutes ago, at 16:00 UTC
Wind 6 kt from the East/Northeast
Temperature 0°C
Humidity 74%
Pressure 1025 hPa
Visibility 10 km or more
Few clouds at a height of 3500 ft

METAR: OIMS 211600Z 06006KT 9999 FEW035 M00/M04 Q1025

Time: 03:37 (00:07 UTC)


TAF: missing

Weather observations and forecasts of more than 4000 airports (METAR and TAF reports).

The available stations are represented by yellow and red dots on the map.

Hover mouse over dot to see the name of the station.

Then click to see weather observations and forecasts.

To change the map : click on the green buttons with a black cross to zoom in, on the green button with a dash to zoom out, or on the green arrows for adjacent maps.


METAR-TAF: